User: anonymous   Login
Location: Unspecified
(22.6800°N, 112.2000°E)
Time: 13:46:09
(UTC+08:00)
Language:

Courier 1B Rocket - Orbit

View from above orbital plane
View from above orbital plane
View from above satellite
View from above satellite

Ground track
Ground track

The orbit data is extracted from the following two-line orbital elements,

1 00059U 60013B   21206.77177730  .00000108  00000-0  29785-4 0  9998
2 00059  28.2486 306.4396 0189258  71.3303 290.7688 13.52986601   929
Epoch (UTC): 25 July 2021 18:31:21
Eccentricity: 0.0189258
inclination: 28.2486°
perigee height: 920 km
apogee height: 1202 km
right ascension of ascending node: 306.4396°
argument of perigee: 71.3303°
revolutions per day: 13.52986601
mean anomaly at epoch: 290.7688°
orbit number at epoch: 92

The dashed part of the orbit path shows where the satellite is in the earth's shadow,  

DLR